Wetterdaten: Woche 10.01.11 - 16.01.11 (KW2)
Datum Zeit Temperatur Luftfeuchte Luftdruck Niederschlag Windrichtung Sonnenschein Solar Wind
10.01.2011 00:00 4,4 C 96 % 1017,7 hPa 0,6 l/m N 0,00 h 0 W/m 8,7 km/h (2 Bft)
10.01.2011 01:00 3,3 C 96 % 1018,3 hPa 1,0 l/m N-NO 0,00 h 0 W/m 7,9 km/h (2 Bft)
10.01.2011 02:00 2,7 C 96 % 1019,0 hPa 0,8 l/m N 0,00 h 0 W/m 8,2 km/h (2 Bft)
10.01.2011 03:00 1,9 C 96 % 1019,6 hPa 1,0 l/m N-NO 0,00 h 0 W/m 7,4 km/h (2 Bft)
10.01.2011 04:00 1,2 C 96 % 1019,9 hPa 0,0 l/m N 0,00 h 0 W/m 6,8 km/h (2 Bft)
10.01.2011 05:00 0,7 C 96 % 1020,1 hPa 0,0 l/m N-NO 0,00 h 0 W/m 4,9 km/h (1 Bft)
10.01.2011 06:00 0,6 C 97 % 1020,3 hPa 0,0 l/m N 0,00 h 0 W/m 1,7 km/h (1 Bft)
10.01.2011 07:00 0,5 C 97 % 1020,7 hPa 1,8 l/m N-NO 0,00 h 0 W/m 2,8 km/h (1 Bft)
10.01.2011 08:00 0,6 C 97 % 1021,1 hPa 0,6 l/m N 0,00 h 8 W/m 1,1 km/h (0 Bft)
10.01.2011 09:00 0,7 C 98 % 1021,2 hPa 0,0 l/m N-NO 0,00 h 28 W/m 4,5 km/h (1 Bft)
10.01.2011 10:00 1,0 C 98 % 1021,4 hPa 0,0 l/m NO 0,00 h 64 W/m 4,1 km/h (1 Bft)
10.01.2011 11:00 1,3 C 97 % 1021,2 hPa 0,0 l/m O-NO 0,00 h 90 W/m 4,9 km/h (1 Bft)
10.01.2011 12:00 1,7 C 96 % 1020,7 hPa 0,0 l/m NO 0,00 h 82 W/m 7,4 km/h (2 Bft)
10.01.2011 13:00 1,9 C 95 % 1020,1 hPa 0,0 l/m O-NO 0,00 h 73 W/m 8,4 km/h (2 Bft)
10.01.2011 14:00 2,1 C 94 % 1019,8 hPa 0,0 l/m O 0,00 h 46 W/m 7,4 km/h (2 Bft)
10.01.2011 15:00 2,0 C 94 % 1019,3 hPa 0,0 l/m O 0,00 h 21 W/m 10,5 km/h (2 Bft)
10.01.2011 16:00 1,8 C 95 % 1019,1 hPa 0,0 l/m O 0,00 h 10 W/m 6,2 km/h (2 Bft)
10.01.2011 17:00 1,7 C 95 % 1018,9 hPa 0,0 l/m NO 0,00 h 0 W/m 6,4 km/h (2 Bft)
10.01.2011 18:00 1,6 C 95 % 1018,7 hPa 0,0 l/m O-SO 0,00 h 0 W/m 7,1 km/h (2 Bft)
10.01.2011 19:00 1,5 C 96 % 1018,3 hPa 0,0 l/m O-SO 0,00 h 0 W/m 6,7 km/h (2 Bft)
10.01.2011 20:00 1,3 C 96 % 1017,9 hPa 0,0 l/m O-SO 0,00 h 0 W/m 5,9 km/h (2 Bft)
10.01.2011 21:00 0,9 C 97 % 1017,6 hPa 0,0 l/m O 0,00 h 0 W/m 6,4 km/h (2 Bft)
10.01.2011 22:00 0,7 C 97 % 1017,4 hPa 0,0 l/m O 0,00 h 0 W/m 3,9 km/h (1 Bft)
10.01.2011 23:00 0,6 C 97 % 1017,1 hPa 0,0 l/m O 0,00 h 0 W/m 3,2 km/h (1 Bft)
11.01.2011 00:00 0,5 C 97 % 1016,7 hPa 0,0 l/m SW 0,00 h 0 W/m 2,5 km/h (1 Bft)
11.01.2011 01:00 0,4 C 97 % 1016,1 hPa 0,0 l/m SW 0,00 h 0 W/m 2,9 km/h (1 Bft)
11.01.2011 02:00 0,5 C 97 % 1015,9 hPa 0,0 l/m SW 0,00 h 0 W/m 6,0 km/h (2 Bft)
11.01.2011 03:00 0,6 C 97 % 1015,4 hPa 0,0 l/m W-SW 0,00 h 0 W/m 3,3 km/h (1 Bft)
11.01.2011 04:00 0,7 C 98 % 1015,0 hPa 0,0 l/m W-SW 0,00 h 0 W/m 3,9 km/h (1 Bft)
11.01.2011 05:00 0,9 C 98 % 1014,6 hPa 0,0 l/m W-SW 0,00 h 0 W/m 9,0 km/h (2 Bft)
11.01.2011 06:00 1,1 C 98 % 1014,0 hPa 0,0 l/m SW 0,00 h 0 W/m 5,2 km/h (1 Bft)
11.01.2011 07:00 1,3 C 98 % 1013,5 hPa 0,0 l/m S-SW 0,00 h 0 W/m 4,9 km/h (1 Bft)
11.01.2011 08:00 1,3 C 98 % 1013,2 hPa 0,0 l/m S-SW 0,00 h 10 W/m 7,4 km/h (2 Bft)
11.01.2011 09:00 1,6 C 98 % 1012,6 hPa 0,0 l/m SW 0,00 h 32 W/m 7,9 km/h (2 Bft)
11.01.2011 10:00 2,1 C 98 % 1012,1 hPa 0,0 l/m SW 0,00 h 54 W/m 7,6 km/h (2 Bft)
11.01.2011 11:00 2,5 C 97 % 1011,6 hPa 0,0 l/m SW 0,00 h 62 W/m 10,6 km/h (2 Bft)
11.01.2011 12:00 2,7 C 95 % 1010,6 hPa 0,0 l/m W-SW 0,00 h 67 W/m 9,7 km/h (2 Bft)
11.01.2011 13:00 2,8 C 94 % 1009,9 hPa 0,0 l/m W-SW 0,00 h 66 W/m 10,1 km/h (2 Bft)
11.01.2011 14:00 3,2 C 92 % 1009,7 hPa 0,0 l/m W-SW 0,00 h 63 W/m 9,5 km/h (2 Bft)
11.01.2011 15:00 3,4 C 92 % 1010,0 hPa 0,0 l/m SW 0,00 h 34 W/m 6,9 km/h (2 Bft)
11.01.2011 16:00 2,7 C 93 % 1010,5 hPa 0,0 l/m SW 0,00 h 16 W/m 7,8 km/h (2 Bft)
11.01.2011 17:00 2,4 C 95 % 1011,1 hPa 0,0 l/m W-SW 0,00 h 0 W/m 10,6 km/h (2 Bft)
11.01.2011 18:00 2,5 C 97 % 1011,9 hPa 1,4 l/m W-SW 0,00 h 0 W/m 10,5 km/h (2 Bft)
11.01.2011 19:00 2,9 C 97 % 1012,5 hPa 0,6 l/m W-SW 0,00 h 0 W/m 14,5 km/h (3 Bft)
11.01.2011 20:00 3,0 C 96 % 1013,3 hPa 0,0 l/m W-SW 0,00 h 0 W/m 18,9 km/h (3 Bft)
11.01.2011 21:00 3,2 C 96 % 1014,1 hPa 0,0 l/m W-SW 0,00 h 0 W/m 19,0 km/h (3 Bft)
11.01.2011 22:00 3,2 C 97 % 1015,0 hPa 0,0 l/m W-SW 0,00 h 0 W/m 14,8 km/h (3 Bft)
11.01.2011 23:00 3,2 C 97 % 1015,4 hPa 0,0 l/m W-SW 0,00 h 0 W/m 17,6 km/h (3 Bft)
12.01.2011 00:00 3,3 C 97 % 1016,2 hPa 0,0 l/m W-SW 0,00 h 0 W/m 14,2 km/h (3 Bft)
12.01.2011 01:00 3,5 C 97 % 1016,1 hPa 0,0 l/m SW 0,00 h 0 W/m 14,9 km/h (3 Bft)
12.01.2011 02:00 3,7 C 97 % 1016,8 hPa 0,0 l/m W-SW 0,00 h 0 W/m 17,4 km/h (3 Bft)
12.01.2011 03:00 4,0 C 96 % 1017,6 hPa 0,0 l/m W-SW 0,00 h 0 W/m 18,4 km/h (3 Bft)
12.01.2011 04:00 4,1 C 95 % 1018,0 hPa 0,0 l/m W-SW 0,00 h 0 W/m 18,1 km/h (3 Bft)
12.01.2011 05:00 4,3 C 95 % 1018,7 hPa 0,0 l/m SW 0,00 h 0 W/m 18,9 km/h (3 Bft)
12.01.2011 06:00 4,3 C 96 % 1019,5 hPa 0,2 l/m W-SW 0,00 h 0 W/m 13,6 km/h (3 Bft)
12.01.2011 07:00 4,1 C 96 % 1020,1 hPa 0,2 l/m W 0,00 h 0 W/m 11,6 km/h (2 Bft)
12.01.2011 08:00 3,8 C 95 % 1020,7 hPa 0,0 l/m W 0,00 h 9 W/m 11,7 km/h (2 Bft)
12.01.2011 09:00 3,6 C 94 % 1021,2 hPa 0,0 l/m W-SW 0,00 h 34 W/m 8,9 km/h (2 Bft)
12.01.2011 10:00 3,9 C 94 % 1021,5 hPa 0,0 l/m W-SW 0,00 h 84 W/m 13,2 km/h (3 Bft)
12.01.2011 11:00 4,4 C 92 % 1021,6 hPa 0,0 l/m W-SW 0,00 h 124 W/m 13,7 km/h (3 Bft)
12.01.2011 12:00 4,7 C 89 % 1021,3 hPa 0,0 l/m W-SW 0,00 h 114 W/m 17,3 km/h (3 Bft)
12.01.2011 13:00 4,8 C 87 % 1020,6 hPa 0,0 l/m W-SW 0,00 h 122 W/m 21,4 km/h (4 Bft)
12.01.2011 14:00 4,8 C 86 % 1020,5 hPa 0,0 l/m W-SW 0,00 h 68 W/m 17,0 km/h (3 Bft)
12.01.2011 15:00 4,4 C 90 % 1020,6 hPa 0,4 l/m W-SW 0,00 h 19 W/m 16,1 km/h (3 Bft)
12.01.2011 16:00 3,8 C 93 % 1020,0 hPa 0,6 l/m SW 0,00 h 9 W/m 17,6 km/h (3 Bft)
12.01.2011 17:00 3,6 C 95 % 1019,8 hPa 0,4 l/m W-SW 0,00 h 0 W/m 20,0 km/h (4 Bft)
12.01.2011 18:00 3,7 C 95 % 1019,5 hPa 0,2 l/m W-SW 0,00 h 0 W/m 24,8 km/h (4 Bft)
12.01.2011 19:00 4,1 C 95 % 1019,3 hPa 0,2 l/m W-SW 0,00 h 0 W/m 30,5 km/h (5 Bft)
12.01.2011 20:00 4,3 C 94 % 1019,0 hPa 0,4 l/m W-SW 0,00 h 0 W/m 29,5 km/h (5 Bft)
12.01.2011 21:00 4,6 C 94 % 1018,9 hPa 0,4 l/m W-SW 0,00 h 0 W/m 27,6 km/h (4 Bft)
12.01.2011 22:00 4,7 C 94 % 1018,8 hPa 0,6 l/m W-SW 0,00 h 0 W/m 25,1 km/h (4 Bft)
12.01.2011 23:00 4,8 C 95 % 1018,6 hPa 1,2 l/m W-SW 0,00 h 0 W/m 25,7 km/h (4 Bft)
13.01.2011 00:00 5,0 C 96 % 1018,0 hPa 0,4 l/m W-SW 0,00 h 0 W/m 27,4 km/h (4 Bft)
13.01.2011 01:00 5,3 C 96 % 1017,5 hPa 0,2 l/m W-SW 0,00 h 0 W/m 25,3 km/h (4 Bft)
13.01.2011 02:00 5,8 C 97 % 1017,3 hPa 0,0 l/m W 0,00 h 0 W/m 29,9 km/h (5 Bft)
13.01.2011 03:00 6,4 C 96 % 1017,4 hPa 0,0 l/m W-SW 0,00 h 0 W/m 31,7 km/h (5 Bft)
13.01.2011 04:00 6,8 C 95 % 1017,2 hPa 0,0 l/m W-SW 0,00 h 0 W/m 33,5 km/h (5 Bft)
13.01.2011 05:00 7,2 C 95 % 1017,1 hPa 0,0 l/m SW 0,00 h 0 W/m 34,3 km/h (5 Bft)
13.01.2011 06:00 7,5 C 95 % 1017,1 hPa 0,0 l/m W-SW 0,00 h 0 W/m 33,5 km/h (5 Bft)
13.01.2011 07:00 7,7 C 95 % 1016,9 hPa 0,0 l/m SW 0,00 h 0 W/m 36,6 km/h (5 Bft)
13.01.2011 08:00 7,9 C 95 % 1017,2 hPa 0,2 l/m SW 0,00 h 5 W/m 33,0 km/h (5 Bft)
13.01.2011 09:00 8,0 C 95 % 1017,3 hPa 0,2 l/m SW 0,00 h 18 W/m 29,2 km/h (5 Bft)
13.01.2011 10:00 8,4 C 95 % 1017,5 hPa 0,2 l/m W-SW 0,00 h 51 W/m 30,0 km/h (5 Bft)
13.01.2011 11:00 8,9 C 93 % 1017,6 hPa 0,0 l/m W-SW 0,00 h 63 W/m 30,3 km/h (5 Bft)
13.01.2011 12:00 9,3 C 93 % 1017,3 hPa 0,0 l/m W 0,00 h 53 W/m 31,5 km/h (5 Bft)
13.01.2011 13:00 9,4 C 92 % 1017,2 hPa 0,0 l/m W-SW 0,00 h 40 W/m 31,1 km/h (5 Bft)
13.01.2011 14:00 9,6 C 91 % 1017,2 hPa 0,0 l/m W 0,00 h 46 W/m 25,6 km/h (4 Bft)
13.01.2011 15:00 9,5 C 90 % 1017,5 hPa 0,0 l/m W-SW 0,00 h 16 W/m 26,4 km/h (4 Bft)
13.01.2011 16:00 9,6 C 91 % 1017,7 hPa 0,0 l/m W-SW 0,00 h 5 W/m 22,8 km/h (4 Bft)
13.01.2011 17:00 9,5 C 91 % 1017,7 hPa 0,0 l/m SW 0,00 h 0 W/m 24,8 km/h (4 Bft)
13.01.2011 18:00 9,6 C 91 % 1017,7 hPa 0,0 l/m W-SW 0,00 h 0 W/m 23,6 km/h (4 Bft)
13.01.2011 19:00 9,5 C 91 % 1018,0 hPa 0,0 l/m SW 0,00 h 0 W/m 19,3 km/h (3 Bft)
13.01.2011 20:00 9,3 C 92 % 1017,8 hPa 0,0 l/m W-SW 0,00 h 0 W/m 20,6 km/h (4 Bft)
13.01.2011 21:00 9,6 C 92 % 1017,7 hPa 0,0 l/m W-SW 0,00 h 0 W/m 23,0 km/h (4 Bft)
13.01.2011 22:00 9,7 C 92 % 1017,7 hPa 0,0 l/m W-SW 0,00 h 0 W/m 22,5 km/h (4 Bft)
13.01.2011 23:00 9,3 C 94 % 1017,7 hPa 0,6 l/m W-SW 0,00 h 0 W/m 22,9 km/h (4 Bft)
14.01.2011 00:00 9,2 C 96 % 1017,7 hPa 0,8 l/m W-SW 0,00 h 0 W/m 24,0 km/h (4 Bft)
14.01.2011 01:00 9,2 C 95 % 1017,8 hPa 0,0 l/m W-SW 0,00 h 0 W/m 24,9 km/h (4 Bft)
14.01.2011 02:00 9,3 C 93 % 1018,0 hPa 0,0 l/m W-SW 0,00 h 0 W/m 28,7 km/h (4 Bft)
14.01.2011 03:00 9,2 C 92 % 1018,3 hPa 0,0 l/m W-SW 0,00 h 0 W/m 28,3 km/h (4 Bft)
14.01.2011 04:00 9,0 C 90 % 1018,5 hPa 0,0 l/m W-SW 0,00 h 0 W/m 27,8 km/h (4 Bft)
14.01.2011 05:00 8,5 C 90 % 1018,4 hPa 0,0 l/m SW 0,00 h 0 W/m 20,5 km/h (4 Bft)
14.01.2011 06:00 8,2 C 89 % 1018,7 hPa 0,0 l/m SW 0,00 h 0 W/m 18,8 km/h (3 Bft)
14.01.2011 07:00 8,2 C 88 % 1019,1 hPa 0,0 l/m W-SW 0,00 h 0 W/m 16,9 km/h (3 Bft)
14.01.2011 08:00 8,4 C 87 % 1019,4 hPa 0,0 l/m W 0,00 h 11 W/m 15,6 km/h (3 Bft)
14.01.2011 09:00 8,7 C 87 % 1019,4 hPa 0,0 l/m W-SW 0,00 h 43 W/m 12,9 km/h (3 Bft)
14.01.2011 10:00 9,1 C 87 % 1019,3 hPa 0,0 l/m SW 0,00 h 80 W/m 10,5 km/h (2 Bft)
14.01.2011 11:00 9,4 C 86 % 1019,0 hPa 0,0 l/m SW 0,00 h 75 W/m 14,4 km/h (3 Bft)
14.01.2011 12:00 9,5 C 86 % 1018,9 hPa 0,0 l/m SW 0,00 h 103 W/m 20,4 km/h (4 Bft)
14.01.2011 13:00 9,3 C 86 % 1018,5 hPa 0,0 l/m W 0,00 h 55 W/m 12,4 km/h (3 Bft)
14.01.2011 14:00 9,1 C 87 % 1018,4 hPa 0,0 l/m W 0,00 h 33 W/m 9,1 km/h (2 Bft)
14.01.2011 15:00 8,8 C 88 % 1018,4 hPa 0,0 l/m SW 0,00 h 29 W/m 9,3 km/h (2 Bft)
14.01.2011 16:00 8,6 C 88 % 1018,4 hPa 0,0 l/m W-SW 0,00 h 11 W/m 8,2 km/h (2 Bft)
14.01.2011 17:00 8,2 C 89 % 1018,1 hPa 0,0 l/m W-SW 0,00 h 0 W/m 7,5 km/h (2 Bft)
14.01.2011 18:00 7,9 C 88 % 1017,9 hPa 0,0 l/m W-SW 0,00 h 0 W/m 8,3 km/h (2 Bft)
14.01.2011 19:00 7,4 C 84 % 1017,4 hPa 0,0 l/m SW 0,00 h 0 W/m 5,6 km/h (1 Bft)
14.01.2011 20:00 5,9 C 87 % 1017,2 hPa 0,0 l/m N 0,00 h 0 W/m 0,1 km/h (0 Bft)
14.01.2011 21:00 4,8 C 90 % 1017,2 hPa 0,0 l/m W-SW 0,00 h 0 W/m 1,5 km/h (1 Bft)
14.01.2011 22:00 4,5 C 93 % 1017,5 hPa 0,0 l/m SO 0,00 h 0 W/m 2,1 km/h (1 Bft)
14.01.2011 23:00 5,5 C 95 % 1018,2 hPa 0,0 l/m W-SW 0,00 h 0 W/m 11,4 km/h (2 Bft)
15.01.2011 00:00 5,8 C 94 % 1019,0 hPa 0,0 l/m SW 0,00 h 0 W/m 13,0 km/h (3 Bft)
15.01.2011 01:00 5,4 C 95 % 1019,0 hPa 0,0 l/m SW 0,00 h 0 W/m 16,9 km/h (3 Bft)
15.01.2011 02:00 6,0 C 95 % 1019,9 hPa 0,0 l/m W-SW 0,00 h 0 W/m 20,4 km/h (4 Bft)
15.01.2011 03:00 7,0 C 90 % 1020,8 hPa 0,0 l/m W-SW 0,00 h 0 W/m 24,4 km/h (4 Bft)
15.01.2011 04:00 6,8 C 91 % 1022,1 hPa 1,0 l/m W-SW 0,00 h 0 W/m 17,3 km/h (3 Bft)
15.01.2011 05:00 6,4 C 94 % 1022,9 hPa 0,8 l/m W-SW 0,00 h 0 W/m 12,4 km/h (3 Bft)
15.01.2011 06:00 6,2 C 96 % 1024,0 hPa 1,0 l/m W-SW 0,00 h 0 W/m 8,8 km/h (2 Bft)
15.01.2011 07:00 6,1 C 96 % 1025,4 hPa 0,2 l/m W-SW 0,00 h 0 W/m 10,2 km/h (2 Bft)
15.01.2011 08:00 5,7 C 96 % 1026,2 hPa 0,0 l/m W 0,08 h 19 W/m 8,6 km/h (2 Bft)
15.01.2011 09:00 5,6 C 96 % 1026,7 hPa 0,0 l/m SW 0,00 h 51 W/m 7,3 km/h (2 Bft)
15.01.2011 10:00 5,8 C 97 % 1027,0 hPa 0,0 l/m S-SW 0,00 h 97 W/m 5,9 km/h (2 Bft)
15.01.2011 11:00 6,7 C 95 % 1026,8 hPa 0,0 l/m S-SW 0,25 h 176 W/m 12,1 km/h (2 Bft)
15.01.2011 12:00 8,2 C 86 % 1026,4 hPa 0,0 l/m SW 0,58 h 215 W/m 15,3 km/h (3 Bft)
15.01.2011 13:00 8,3 C 81 % 1026,2 hPa 0,0 l/m W-SW 0,00 h 129 W/m 11,4 km/h (2 Bft)
15.01.2011 14:00 8,1 C 82 % 1026,5 hPa 0,0 l/m SW 0,00 h 93 W/m 10,3 km/h (2 Bft)
15.01.2011 15:00 7,9 C 83 % 1026,4 hPa 0,0 l/m SW 0,08 h 74 W/m 11,8 km/h (2 Bft)
15.01.2011 16:00 7,4 C 82 % 1026,7 hPa 0,0 l/m W-SW 0,00 h 20 W/m 8,6 km/h (2 Bft)
15.01.2011 17:00 6,4 C 85 % 1026,9 hPa 0,0 l/m SW 0,00 h 0 W/m 6,7 km/h (2 Bft)
15.01.2011 18:00 5,5 C 87 % 1027,0 hPa 0,0 l/m N 0,00 h 0 W/m 2,4 km/h (1 Bft)
15.01.2011 19:00 4,6 C 89 % 1027,0 hPa 0,0 l/m SO 0,00 h 0 W/m 4,8 km/h (1 Bft)
15.01.2011 20:00 4,3 C 92 % 1027,4 hPa 0,0 l/m O-SO 0,00 h 0 W/m 2,1 km/h (1 Bft)
15.01.2011 21:00 3,7 C 91 % 1027,6 hPa 0,0 l/m N 0,00 h 0 W/m 1,3 km/h (1 Bft)
15.01.2011 22:00 3,1 C 93 % 1027,5 hPa 0,0 l/m N 0,00 h 0 W/m 0,5 km/h (0 Bft)
15.01.2011 23:00 2,6 C 94 % 1027,4 hPa 0,0 l/m N 0,00 h 0 W/m 0,4 km/h (0 Bft)
16.01.2011 00:00 1,7 C 93 % 1027,2 hPa 0,0 l/m N 0,00 h 0 W/m 0,0 km/h (0 Bft)
16.01.2011 01:00 1,1 C 94 % 1027,0 hPa 0,0 l/m N 0,00 h 0 W/m 0,0 km/h (0 Bft)
16.01.2011 02:00 0,6 C 95 % 1027,1 hPa 0,0 l/m N 0,00 h 0 W/m 0,0 km/h (0 Bft)
16.01.2011 03:00 0,2 C 95 % 1027,0 hPa 0,0 l/m N 0,00 h 0 W/m 0,0 km/h (0 Bft)
16.01.2011 04:00 -0,1 C 95 % 1026,9 hPa 0,0 l/m N 0,00 h 0 W/m 0,0 km/h (0 Bft)
16.01.2011 05:00 -0,4 C 95 % 1026,9 hPa 0,0 l/m N 0,00 h 0 W/m 0,0 km/h (0 Bft)
16.01.2011 06:00 -0,7 C 95 % 1027,2 hPa 0,0 l/m N 0,00 h 0 W/m 0,0 km/h (0 Bft)
16.01.2011 07:00 -0,9 C 95 % 1027,4 hPa 0,0 l/m N 0,00 h 0 W/m 0,0 km/h (0 Bft)
16.01.2011 08:00 -1,1 C 96 % 1028,0 hPa 0,0 l/m N 0,00 h 13 W/m 0,0 km/h (0 Bft)
16.01.2011 09:00 -0,9 C 96 % 1028,4 hPa 0,0 l/m N 0,00 h 33 W/m 0,0 km/h (0 Bft)
16.01.2011 10:00 0,2 C 98 % 1028,5 hPa 0,2 l/m O-SO 0,00 h 49 W/m 1,9 km/h (1 Bft)
16.01.2011 11:00 3,0 C 98 % 1028,4 hPa 0,0 l/m O-SO 0,42 h 177 W/m 5,1 km/h (1 Bft)
16.01.2011 12:00 6,6 C 84 % 1027,9 hPa 0,0 l/m SW 0,92 h 305 W/m 4,7 km/h (1 Bft)
16.01.2011 13:00 8,0 C 81 % 1027,4 hPa 0,0 l/m SW 1,00 h 343 W/m 6,1 km/h (2 Bft)
16.01.2011 14:00 8,5 C 79 % 1026,7 hPa 0,0 l/m S-SW 1,00 h 260 W/m 10,6 km/h (2 Bft)
16.01.2011 15:00 8,5 C 80 % 1026,6 hPa 0,0 l/m S-SW 0,08 h 62 W/m 8,2 km/h (2 Bft)
16.01.2011 16:00 6,8 C 85 % 1026,5 hPa 0,0 l/m SW 0,00 h 13 W/m 3,3 km/h (1 Bft)
16.01.2011 17:00 4,7 C 88 % 1026,6 hPa 0,0 l/m N 0,00 h 0 W/m 0,0 km/h (0 Bft)
16.01.2011 18:00 3,0 C 90 % 1026,8 hPa 0,0 l/m N 0,00 h 0 W/m 0,0 km/h (0 Bft)
16.01.2011 19:00 1,6 C 92 % 1027,2 hPa 0,0 l/m N 0,00 h 0 W/m 0,0 km/h (0 Bft)
16.01.2011 20:00 0,7 C 93 % 1027,3 hPa 0,0 l/m N 0,00 h 0 W/m 0,0 km/h (0 Bft)
16.01.2011 21:00 -0,0 C 93 % 1027,5 hPa 0,0 l/m N 0,00 h 0 W/m 0,1 km/h (0 Bft)
16.01.2011 22:00 -0,6 C 94 % 1027,5 hPa 0,0 l/m N 0,00 h 0 W/m 0,0 km/h (0 Bft)
16.01.2011 23:00 -1,2 C 94 % 1027,5 hPa 0,0 l/m N 0,00 h 0 W/m 0,0 km/h (0 Bft)
Min-Datum _ 16.01.11 16.01.11 11.01.11 - - - - 10.01.11
_ Min-Zeit 23:45 14:55 14:05 - - - - 00:00
Minimum _ -1,3 C 77 % 1009,5 hPa - - - - 0,0 km/h (0 Bft)
Max-Datum _ 13.01.11 16.01.11 16.01.11 10.01.11 - 15.01.11 15.01.11 13.01.11
_ Max-Zeit 18:35 11:05 09:35 07:15 - 08:20 12:20 07:25
Maximum _ 9,7 C 99 % 1028,5 hPa 1,8 l/m - 0,08 h 380 W/m 43,5 km/h
W-SW (6 Bft)
Durchschnitt _ 4,6 C 93 % 1020,0 hPa #18,4 l/m W-SW #4:25 h 68 W/m 12,5 km/h (3 Bft)